User: anonymous   Login
Location: Caltech
(34.1382°N, 118.1253°W)
Time: 08:10:08
(UTC-07:00)
Language:

JAS-2 - Orbit

View from above orbital plane
View from above orbital plane
View from above satellite
View from above satellite

Ground track
Ground track

The orbit data is extracted from the following two-line orbital elements,

1 24278U 96046B   14302.45068619  .00000041  00000-0  80144-4 0  5056
2 24278 098.5162 297.7864 0349553 309.3697 175.6270 13.53034197898824
Epoch (UTC): 29 October 2014 10:48:59
Eccentricity: 0.0349553
inclination: 98.5162°
perigee height: 801 km
apogee height: 1321 km
right ascension of ascending node: 297.7864°
argument of perigee: 309.3697°
revolutions per day: 13.53034197
mean anomaly at epoch: 175.6270°
orbit number at epoch: 89882

The dashed part of the orbit path shows where the satellite is in the earth's shadow,  

DLR